WB0OCV Weather Reports


time (UTC)temp
F
wind
direction
speed
knots
gust
knots
rain 1hr
in
rain 24hr
in
rain mn
in
humidity
%
barometer
mb
20260505091250 48 111 0.0 0.0 0.00 0.00 0.00 98 1014.6
20260505090748 49 121 0.0 0.0 0.00 0.00 0.00 98 1014.6
20260505090246 48 120 0.0 0.0 0.00 0.00 0.00 98 1014.6
20260505085743 48 120 0.0 0.0 0.00 0.00 0.00 98 1014.4
20260505085241 48 120 0.0 0.0 0.00 0.00 0.00 98 1014.5
20260505084738 48 132 0.0 0.0 0.00 0.00 0.00 98 1014.5
20260505084238 48 132 0.0 0.0 0.00 0.00 0.00 98 1014.5
20260505083734 48 132 0.0 0.0 0.00 0.00 0.00 98 1014.5
20260505083230 48 131 0.0 0.0 0.00 0.00 0.00 98 1014.7
20260505082726 48 131 0.0 0.0 0.00 0.00 0.00 98 1014.5
20260505082224 48 129 0.0 0.0 0.00 0.00 0.00 97 1014.7
20260505081719 49 128 0.0 0.9 0.00 0.00 0.00 98 1014.5
20260505081217 48 121 0.0 0.0 0.00 0.00 0.00 97 1014.6
20260505080714 48 112 0.0 0.0 0.00 0.00 0.00 98 1014.6
20260505080210 48 120 0.0 0.0 0.00 0.00 0.00 97 1014.6
20260505075706 48 143 0.0 0.9 0.00 0.00 0.00 98 1014.6
20260505075203 48 111 0.0 0.0 0.00 0.00 0.00 97 1014.9
20260505074700 48 111 0.0 0.0 0.00 0.00 0.00 97 1014.9
20260505074157 49 111 0.0 0.0 0.00 0.00 0.00 97 1014.9
20260505073655 49 111 0.0 0.0 0.00 0.00 0.00 97 1015.0
20260505073153 49 111 0.0 0.0 0.00 0.00 0.00 97 1014.8
20260505072648 49 111 0.0 0.0 0.00 0.00 0.00 96 1014.8
20260505072145 49 112 0.0 0.0 0.00 0.00 0.00 96 1014.9
20260505071640 49 112 0.0 0.0 0.00 0.00 0.00 95 1014.6
20260505071138 50 112 0.0 0.0 0.00 0.00 0.00 95 1014.6
20260505070635 50 122 0.0 0.0 0.00 0.00 0.00 94 1014.8
20260505070132 50 131 0.0 0.0 0.00 0.00 0.00 94 1014.8
20260505065627 50 140 0.0 0.0 0.00 0.00 0.00 95 1014.8
20260505065124 50 139 0.0 2.6 0.00 0.00 0.00 94 1014.9
20260505064621 50 128 0.0 0.9 0.00 0.00 0.00 95 1014.6
20260505064120 49 124 0.0 0.0 0.00 0.00 0.00 95 1014.7
20260505063617 50 125 0.0 0.9 0.00 0.00 0.00 95 1014.8
20260505063112 50 135 0.0 0.9 0.00 0.00 0.00 94 1014.8
20260505062609 50 124 0.0 0.0 0.00 0.00 0.00 94 1014.6
20260505062106 50 124 0.0 1.7 0.00 0.00 0.00 94 1014.8
20260505061603 50 138 0.0 0.9 0.00 0.00 0.00 94 1014.7
20260505061102 50 132 0.0 0.0 0.00 0.00 0.00 94 1014.6
20260505060559 50 115 0.0 0.0 0.00 0.00 0.00 94 1014.7
20260505060055 50 116 0.0 1.7 0.00 0.00 0.00 93 1014.7
20260505055550 50 142 0.0 1.7 0.00 0.00 0.00 93 1014.8
20260505055048 50 140 0.9 0.9 0.00 0.00 0.00 93 1014.7
20260505054545 50 112 0.0 1.7 0.00 0.00 0.00 93 1014.9
20260505054043 50 123 0.0 0.9 0.00 0.00 0.00 92 1014.8
20260505053540 50 116 0.0 0.0 0.00 0.00 0.00 92 1014.8
20260505053036 51 78 0.9 0.9 0.00 0.00 0.00 91 1014.7
20260505052533 51 114 0.0 1.7 0.00 0.00 0.00 91 1014.7
20260505052031 51 113 0.0 0.9 0.00 0.00 0.00 90 1014.6
20260505051527 51 138 0.9 0.9 0.00 0.00 0.00 91 1014.8
20260505051026 51 134 0.9 1.7 0.00 0.00 0.00 90 1014.8
20260505050524 51 172 1.7 2.6 0.00 0.00 0.00 90 1014.8
20260505041451 50 115 0.0 0.9 0.00 0.00 0.00 91 1014.8
20260505040948 50 72 1.7 2.6 0.00 0.00 0.00 90 1015.1
20260505040446 50 127 0.0 1.7 0.00 0.00 0.00 89 1014.9
20260505035943 51 117 0.0 0.9 0.00 0.00 0.00 89 1015.3
20260505035439 51 121 0.0 3.5 0.00 0.00 0.00 88 1015.1
20260505034936 51 117 0.0 1.7 0.00 0.00 0.00 88 1015.2
20260505034432 51 172 0.0 3.5 0.00 0.00 0.00 88 1015.3
20260505033930 51 166 2.6 3.5 0.00 0.00 0.00 87 1015.2
20260505033426 51 133 0.0 1.7 0.00 0.00 0.00 87 1015.5
20260505032924 51 139 0.9 2.6 0.00 0.00 0.00 87 1015.5
20260505032421 51 222 1.7 1.7 0.00 0.00 0.00 87 1015.3
20260505031918 51 186 0.9 1.7 0.00 0.00 0.00 86 1015.4
20260505031415 51 185 0.9 2.6 0.00 0.00 0.00 86 1015.1
20260505030912 51 110 0.9 1.7 0.00 0.00 0.00 86 1015.2
20260505030408 51 213 1.7 2.6 0.00 0.00 0.00 86 1015.4
20260505025903 51 150 1.7 1.7 0.00 0.00 0.00 86 1015.4
20260505025401 52 236 2.6 2.6 0.00 0.00 0.00 85 1015.4
20260505024900 51 225 1.7 3.5 0.00 0.00 0.00 85 1015.3
20260505024357 52 161 0.9 1.7 0.00 0.00 0.00 85 1015.4
20260505023853 52 215 1.7 2.6 0.00 0.00 0.00 84 1015.4
20260505023351 52 152 1.7 1.7 0.00 0.00 0.00 84 1015.5
20260505022848 52 231 1.7 5.2 0.00 0.00 0.00 83 1015.4
20260505022344 52 141 1.7 2.6 0.00 0.00 0.00 83 1015.4
20260505021842 52 252 1.7 5.2 0.00 0.00 0.00 83 1015.2
20260505021338 52 216 1.7 5.2 0.00 0.00 0.00 83 1015.3
20260505020834 52 248 1.7 1.7 0.00 0.00 0.00 82 1015.6
20260505020330 52 228 2.6 5.2 0.00 0.00 0.00 82 1015.3
20260505015827 53 221 3.5 5.2 0.00 0.00 0.00 82 1015.2
20260505015324 53 106 0.9 3.5 0.00 0.00 0.00 81 1015.2
20260505014821 53 162 0.9 5.2 0.00 0.00 0.00 81 1015.1
20260505014318 53 244 1.7 2.6 0.00 0.00 0.00 81 1015.1
20260505013815 53 125 0.9 3.5 0.00 0.00 0.00 81 1015.1
20260505013312 53 192 1.7 5.2 0.00 0.00 0.00 80 1014.9
20260505012811 53 222 0.9 3.5 0.00 0.00 0.00 80 1014.8
20260505012308 53 236 1.7 2.6 0.00 0.00 0.00 80 1014.8
20260505011803 53 131 1.7 3.5 0.00 0.00 0.00 79 1014.4
20260505011301 53 191 1.7 5.2 0.00 0.00 0.00 79 1014.6
20260505010756 53 181 2.6 3.5 0.00 0.00 0.00 78 1014.7
20260505010252 53 188 1.7 1.7 0.00 0.00 0.00 77 1014.6
20260505005749 53 220 0.9 2.6 0.00 0.00 0.00 76 1014.5
20260505005246 53 276 1.7 3.5 0.00 0.00 0.00 75 1014.3
20260505004743 53 164 1.7 3.5 0.00 0.00 0.00 74 1014.3
20260505004239 53 215 1.7 5.2 0.00 0.00 0.00 74 1013.9
20260505003736 53 231 3.5 5.2 0.00 0.00 0.00 73 1014.0
20260505003234 53 207 1.7 2.6 0.00 0.00 0.00 73 1013.7
20260505002730 53 112 0.9 2.6 0.00 0.00 0.00 73 1013.9
20260505002228 53 225 2.6 2.6 0.00 0.00 0.00 73 1013.9
20260505001725 53 237 4.3 6.1 0.00 0.00 0.00 71 1013.6
20260505001223 53 211 1.7 7.8 0.00 0.00 0.00 71 1013.7
20260505000720 53 172 0.9 3.5 0.00 0.00 0.00 71 1013.6
20260505000219 53 260 3.5 3.5 0.00 0.00 0.00 70 1013.5
20260504235714 53 182 2.6 5.2 0.00 0.00 0.00 69 1013.4
20260504235210 53 242 3.5 6.1 0.00 0.00 0.00 69 1013.5
20260504234708 53 73 1.7 2.6 0.00 0.00 0.00 69 1013.3
20260504234204 53 209 1.7 7.8 0.00 0.00 0.00 69 1013.3
20260504233700 54 208 1.7 2.6 0.00 0.00 0.00 69 1013.3
20260504233156 54 239 1.7 6.1 0.00 0.00 0.00 68 1013.4
20260504232654 54 227 3.5 6.1 0.00 0.00 0.00 68 1013.3
20260504232151 54 234 3.5 7.8 0.00 0.00 0.00 67 1013.4
20260504231648 54 194 4.3 11.3 0.00 0.00 0.00 66 1013.4
20260504231144 54 131 0.9 7.8 0.00 0.00 0.00 66 1013.3
20260504230640 55 206 1.7 5.2 0.00 0.00 0.00 66 1013.3
20260504230139 55 211 4.3 7.0 0.00 0.00 0.00 65 1012.9
20260504225637 55 197 0.9 3.5 0.00 0.00 0.00 65 1013.2
20260504225133 55 166 1.7 2.6 0.00 0.00 0.00 64 1013.1
20260504224630 56 240 2.6 3.5 0.00 0.00 0.00 64 1013.1
20260504224126 56 240 1.7 7.0 0.00 0.00 0.00 63 1013.1
20260504223624 56 229 1.7 2.6 0.00 0.00 0.00 64 1013.1
20260504223119 56 110 1.7 3.5 0.00 0.00 0.00 64 1013.1
20260504222617 56 198 0.9 3.5 0.00 0.00 0.00 64 1013.0
20260504222114 56 223 1.7 5.2 0.00 0.00 0.00 63 1013.2
20260504221611 56 230 1.7 7.0 0.00 0.00 0.00 63 1013.1
20260504221108 56 175 0.9 2.6 0.00 0.00 0.00 64 1012.9
20260504220604 56 141 0.9 3.5 0.00 0.00 0.00 64 1013.1
20260504220101 57 125 0.9 3.5 0.00 0.00 0.00 63 1013.0
20260504215558 57 179 0.9 5.2 0.00 0.00 0.00 62 1013.1
20260504215055 57 223 2.6 2.6 0.00 0.00 0.00 62 1013.0
20260504214551 58 301 2.6 7.0 0.00 0.00 0.00 61 1013.3
20260504214048 58 181 0.9 6.1 0.00 0.00 0.00 59 1013.1
20260504213544 58 200 3.5 5.2 0.00 0.00 0.00 59 1013.0
20260504213041 58 181 3.5 7.8 0.00 0.00 0.00 60 1013.2
20260504212537 59 199 0.9 9.6 0.00 0.00 0.00 60 1013.2
20260504212034 60 100 2.6 5.2 0.00 0.00 0.00 58 1013.1
20260504211531 60 124 1.7 3.5 0.00 0.00 0.00 57 1013.2
20260504211028 60 198 3.5 5.2 0.00 0.00 0.00 57 1013.3
20260504210525 60 176 1.7 2.6 0.00 0.00 0.00 57 1013.2
20260504210022 60 260 5.2 8.7 0.00 0.00 0.00 56 1013.3
20260504205520 60 134 2.6 3.5 0.00 0.00 0.00 55 1013.1
20260504205018 61 195 1.7 3.5 0.00 0.00 0.00 54 1013.3
20260504204515 61 234 0.9 2.6 0.00 0.00 0.00 54 1013.0
20260504204014 61 197 1.7 3.5 0.00 0.00 0.00 54 1013.0
20260504203512 61 237 4.3 6.1 0.00 0.00 0.00 52 1013.0
20260504203009 62 150 1.7 2.6 0.00 0.00 0.00 51 1013.1
20260504202504 62 103 1.7 7.0 0.00 0.00 0.00 51 1012.8
20260504202001 63 221 2.6 6.1 0.00 0.00 0.00 52 1012.8
20260504201458 64 167 1.7 2.6 0.00 0.00 0.00 50 1012.6
20260504200956 63 295 1.7 5.2 0.00 0.00 0.00 50 1012.9
20260504200452 64 178 4.3 7.0 0.00 0.00 0.00 49 1012.7
20260504195949 65 168 0.9 2.6 0.00 0.00 0.00 46 1012.9
20260504195445 65 189 1.7 8.7 0.00 0.00 0.00 45 1013.0
20260504194942 65 181 1.7 3.5 0.00 0.00 0.00 45 1013.1
20260504194438 65 234 2.6 3.5 0.00 0.00 0.00 43 1012.7
20260504193934 65 171 1.7 3.5 0.00 0.00 0.00 45 1012.7
20260504193431 66 159 1.7 2.6 0.00 0.00 0.00 48 1013.0
20260504192930 66 168 1.7 5.2 0.00 0.00 0.00 45 1012.9
20260504192427 66 190 2.6 3.5 0.00 0.00 0.00 46 1013.1
20260504191926 66 151 1.7 3.5 0.00 0.00 0.00 46 1013.1
20260504191424 66 127 1.7 2.6 0.00 0.00 0.00 46 1013.0
20260504190918 65 258 4.3 6.1 0.00 0.00 0.00 46 1013.2
20260504190414 65 238 1.7 6.1 0.00 0.00 0.00 46 1013.1
20260504185911 66 246 5.2 7.8 0.00 0.00 0.00 46 1013.3
20260504185409 66 218 1.7 6.1 0.00 0.00 0.00 50 1013.3
20260504184904 65 211 1.7 5.2 0.00 0.00 0.00 48 1013.2
20260504184400 65 110 4.3 7.8 0.00 0.00 0.00 45 1013.3
20260504183856 66 280 7.0 9.6 0.00 0.00 0.00 45 1013.4
20260504183354 66 286 2.6 5.2 0.00 0.00 0.00 44 1013.1
20260504182851 67 222 3.5 6.1 0.00 0.00 0.00 51 1013.2
20260504182349 66 180 2.6 5.2 0.00 0.00 0.00 53 1013.1
20260504181845 66 197 1.7 6.1 0.00 0.00 0.00 51 1013.0
20260504181343 66 127 2.6 3.5 0.00 0.00 0.00 48 1013.0
20260504180841 65 170 1.7 6.1 0.00 0.00 0.00 49 1013.1
20260504180339 65 205 3.5 3.5 0.00 0.00 0.00 52 1013.1
20260504175837 66 295 0.9 5.2 0.00 0.00 0.00 52 1013.0
20260504175334 65 124 0.9 5.2 0.00 0.00 0.00 52 1013.1
20260504174832 67 179 3.5 5.2 0.00 0.00 0.00 50 1013.1
20260504174329 66 214 2.6 2.6 0.00 0.00 0.00 49 1013.2
20260504173826 66 268 2.6 3.5 0.00 0.00 0.00 49 1013.1
20260504173323 67 207 4.3 5.2 0.00 0.00 0.00 53 1013.2
20260504172820 66 272 3.5 8.7 0.00 0.00 0.00 49 1013.2
20260504172316 66 166 1.7 3.5 0.00 0.00 0.00 52 1012.8
20260504171812 66 164 0.9 2.6 0.00 0.00 0.00 48 1013.1
20260504171310 65 83 1.7 6.1 0.00 0.00 0.00 49 1013.1
20260504170807 65 260 5.2 8.7 0.00 0.00 0.00 47 1013.0
20260504170304 64 165 2.6 7.0 0.00 0.00 0.00 49 1013.3
20260504160222 63 246 3.5 3.5 0.00 0.00 0.00 53 1013.6
20260504150653 62 176 3.5 5.2 0.00 0.00 0.00 51 1014.1
20260504150149 61 186 3.5 7.8 0.00 0.00 0.00 52 1014.1
20260504141119 59 228 1.7 5.2 0.00 0.00 0.00 57 1014.5
20260504140615 59 231 3.5 7.8 0.00 0.00 0.00 58 1014.6
20260504140111 58 176 0.9 2.6 0.00 0.00 0.00 59 1014.3
20260504130539 56 170 1.7 5.2 0.00 0.00 0.00 67 1014.8
20260504110426 50 206 1.7 5.2 0.00 0.00 0.00 75 1014.6
20260504100343 46 120 0.0 0.0 0.00 0.00 0.00 83 1014.1